Regional Weather Roundup
Issued by NWS Newport/Morehead, NC

Current Version | Previous Version | Text Only | Print | Product List | Glossary Off
Versions: 1 2 3 4 5 6 7 8 9 10 11 12 13 14 15 16 17 18 19 20 21 22 23 24 25 26 27 28 29 30 31 32 33 34 35 36 37 38 39 40 41 42 43 44 45 46 47 48 49 50

000
ASUS42 KMHX 010124
RWRMHX
WEATHER ROUNDUP FOR EASTERN NORTH CAROLINA
NATIONAL WEATHER SERVICE NEWPORT/MOREHEAD CITY NC
900 PM EDT TUE MAR 31 2015

NOTE: "FAIR" INDICATES FEW OR NO CLOUDS BELOW 12,000 FEET
WITH NO SIGNIFICANT WEATHER AND/OR OBSTRUCTIONS TO VISIBILITY

NCZ015>017-031-032-045>047-102-103-010200-
NORTH COAST

CITY           SKY/WX    TMP DP  RH WIND       PRES   REMARKS
EDENTON        FAIR      61  42  49 SW13G20   29.74S
ELIZABETH CITY FAIR      61  40  45 S18G26    29.71S
KITTY HAWK     FAIR      58  42  54 SW9       29.73S
MANTEO         FAIR      57  45  63 SW17      29.75F

$$

NCZ045>047-081-094-103-104-010200-
CENTRAL COAST

CITY           SKY/WX    TMP DP  RH WIND       PRES   REMARKS
FRISCO         FAIR      61  48  62 SW21G32   29.81R
SWANQUARTER      N/A     57 N/A N/A S13G22    29.77S

$$

NCZ095-097-098-100-101-010200-
SOUTHERN COAST

CITY           SKY/WX    TMP DP  RH WIND       PRES   REMARKS
BEAUFORT       FAIR      58  53  84 SW16      29.84S
CEDAR ISLAND     N/A     61 N/A N/A SW15G26   29.85S
JACKSONVILLE   FAIR      61  41  47 SW7G17    29.83S
PINEY ISLAND   FAIR     N/A N/A N/A SW18G28   29.83R
WILMINGTON     FAIR      62  49  62 SW15G21   29.85S


$$

NCZ011>013-027>030-043-044-078>080-089-090>093-098-010200-
COASTAL PLAIN

CITY           SKY/WX    TMP DP  RH WIND       PRES   REMARKS
AHOSKIE        FAIR      63  37  37 SW6       29.71S
CLINTON        FAIR      63  44  49 S6        29.81S
ELIZABETHTOWN  FAIR      62  44  52 S7        29.83S
GOLDSBORO      FAIR      64  44  47 S12       29.77R
GREENVILLE     FAIR      64  37  36 SW14      29.79R
HAVELOCK       FAIR      61  46  57 SW20G32   29.84R
KENANSVILLE    FAIR      61  40  46 S3        29.82S
KINSTON        FAIR      64  37  36 S14G20    29.80R
NEW BERN       FAIR      61  47  59 SW13      29.82R
RICHLANDS      FAIR      59  39  47 S13       29.83S
ROCKY MOUNT    FAIR      66  36  32 S9        29.74S
WASHINGTON     FAIR      61  40  45 S8        29.78R
WHITEVILLE     FAIR      60  49  67 S5        29.84S

$$

AMZ130-135-150-152-154-156-158-170-250-252-270-ANZ085-086-088-633-658-670-010200-
MARINE OBSERVATIONS

STATION/POSITION TIME  TEMP    WIND        PRES    WAVE   SWELL
                       AIR SEA DIR/SP/G            HT/PER HT/PER
                 (UTC) (F)     (DEG/KT/KT) (MB)    (FT/S) (FT/S)
CHESAPEAKE LIGHT 0100   53     210/ 27/ 28 1004.6
64 E VA BEACH    0050   55 49  210/ 25/ 29 1005.2    5/ 5   2/10
DUCK             0100   60 42  210/ 20/ 25 1005.3
2 E DUCK         0011      43                N/A     2/10
10 NE DUCK       NOT AVBL
OREGON INLET     0100   56 54  200/ 19/ 23 1007.9
HATTERAS CG      0100   62 57  230/ 16/ 25 1009.8
CAPE LOOKOUT     0100   60     220/ 12/ 16 1010.5
BEAUFORT LAB     0100   58 54  230/  6/ 11 1009.7
27 SE WRIGHTSVLE 0100   62 63  230/ 17/ 19 1013.2
5 SE WRIGHTSVLE  0100   60 57  230/ 16/ 17 1010.9
225 S CAPE HAT   0050   69 69  240/ 17/ 19 1015.8    5/ 6   2/11
41 SE CHARLESTON 0050   69 68  200/ 17/ 21 1012.6    3/ 4   2/10

$$


USA.gov is the U.S. government's official web portal to all federal, state and local government web resources and services.